{"data":{"norad_id":64428,"intl_designator":"2025-129S","name":"STARLINK-34495","alt_names":[],"object_type":"PAYLOAD","status":"ACTIVE","operator":null,"country":"US","launch_date":"2025-06-17","launch_site_code":"AFWTR","launch_vehicle":null,"mission":null,"orbit_class":"UNKNOWN","rcs_meters":null,"size_class":null,"mass_kg":null,"dimensions":null,"purposes":["comms"],"wikipedia_slug":null,"has_3d_model":false,"image_url":null,"decayed_at":null,"tle_current":{"epoch":"2026-05-25T05:32:25.306944Z","epoch_age_seconds":51054,"freshness":"FRESH","line1":"1 64428U 25129S   26145.23084846  .00003262  00000+0  28101-3 0  9993","line2":"2 64428  70.0004 241.4198 0003500 269.9910  90.0848 14.98336591 52757","mean_motion":14.98336591,"eccentricity":0.00035,"inclination_deg":70.0004,"raan_deg":241.4198,"arg_perigee_deg":269.991,"mean_anomaly_deg":90.0848,"bstar":0.00028101,"rev_number":5275,"period_min":96.106576362721,"perigee_km":569.60294851721,"apogee_km":574.46806927344,"semimajor_km":6950.1725088953,"source":"CELESTRAK","updated_at":"2026-05-25T13:38:20.442563Z"}}}